Rbgn^[z[y[W
メイン
   新天体発見情報
     Comet C/2023 C2 (ATLAS)
投稿するにはまず登録を

フラット表示 前のトピック | 次のトピック
投稿者 スレッド
佐藤裕久
投稿日時: 2023-4-12 14:18
モデレータ
登録日: 2005-6-12
居住地: 日本
投稿: 2622
オンライン
Comet C/2023 C2 (ATLAS)

2月1日UT、チリ Rio Hurtadoにある小惑星地球衝突最終警報システム Asteroid Terrestrial-
impact Last Alert System (ATLAS)調査プログラムのコースに0.5-m f/2 Schmidt反射望遠鏡で
得たCCD画像から小惑星状天体を発見された。
小惑星センターのPCCP webpageに公表後、E. Bryssinck (Kruibeke, ベルギー, 2月28.12日, 
輝度フィルター, 180秒露出13枚のスタック, "Telescope Live" 0.61-m f/6.5アストログラフ, 
Rio Hurtado, チリ, M. Rocchette, E. Guido, G. Milani, A. Valvasoriと彼による遠隔操作: 
中央集光のある9"のコマが見えた。5"の範囲で測定した光度は19.0等であった)らCCD位置観測
者によって彗星状と観測された。

彗星機能の報告は次のとおり、

OC   Date        Reporter           Coma    Tail    PA          Exposures
X02  2023-02-28  E. Bryssinck       9"                           13x180s
X02  2023-03-14  E. Bryssinck       9"                           20x60s
Q62  2023-03-19  H. Sato            6"       20"     20          6x120s

発見位置は次のとおり、

     2023 UT             R.A. (2000) Decl.       Mag.
     Feb.  1.25410   11 05 31.33   -48 04 42.0   19.1
           1.27741   11 05 30.45   -48 04 50.0   19.2
           1.29240   11 05 30.11   -48 04 54.1   19.1
           1.30052   11 05 29.79   -48 04 55.3   19.0

MPCの楕円軌道要素、位置推算表は次のとおり、

Orbital elements:
    C/2023 C2 (ATLAS)                                                           
Epoch 2023 Feb. 25.0 TT = JDT 2460000.5                                         
T 2024 Nov. 16.74304 TT                                 Rudenko                 
q   2.3681140            (2000.0)            P               Q                  
z  +0.0002401      Peri.  357.44310     +0.48959319     +0.59224974             
 ±0.0001715      Node   301.03268     -0.78616202     -0.01763268             
e   0.9994313      Incl.   48.31787     -0.37715753     +0.80556150             
>From 68 observations 2023 Feb. 1-Mar. 19, mean residual 0".4.                   
                                                                                
Ephemeris:
Date    TT    R. A. (2000) Decl.     Delta      r    Elong.  Phase   m1
2023 02 24    10 51 24.1 -49 29 44   5.9848  6.5428   120.5     7.5  19.0
...
2023 03 11    10 40 07.7 -49 43 27   5.8013  6.4287   125.5     7.2  18.9
...
2023 03 19    10 34 04.3 -49 36 05   5.7210  6.3676   126.8     7.2  18.8
...
2023 03 25    10 29 42.3 -49 24 05   5.6691  6.3218   127.2     7.2  18.8
2023 03 26    10 29 00.0 -49 21 34   5.6611  6.3141   127.2     7.2  18.8
2023 03 27    10 28 18.2 -49 18 55   5.6534  6.3065   127.2     7.2  18.8
...
2023 04 02    10 24 18.3 -49 00 11   5.6110  6.2605   126.8     7.3  18.7
...
2023 04 10    10 19 34.3 -48 28 26   5.5653  6.1992   125.4     7.6  18.7
...
2023 04 25    10 13 00.3 -47 13 03   5.5110  6.0838   120.5     8.2  18.5

(MPEC 2023-F141、CBET 5238)

フラット表示 前のトピック | 次のトピック

題名 投稿者 日時
 » Comet C/2023 C2 (ATLAS) 佐藤裕久 2023-4-12 14:18

投稿するにはまず登録を
 
© 1999 Tsutomu Seki.